Temperature
4 4 4 4 4 4 4 4 3 4 3 3 3 3 3 3 3 3 3 3 3 2 2 2 2 2 2 2 2 1 1 1 1 1 1 1 1 1 1 1 1 1 1
3 3 3 3 3 3 3 3 3 3 3 3 3 3 3 3 2 2 2 2 2 2 2 2 2 1 1 1 1 1 1 1 1 1 1 1 1 1 1 1 1 1 1
3 3 3 3 3 3 3 3 3 3 3 3 3 2 2 2 2 2 2 2 1 1 1 1 1 1 1 1 1 1 1 1 0 0 0 0 0 0 0 0 0 0 0
2 2 3 3 3 3 3 3 2 2 2 2 2 2 2 2 1 1 1 1 1 1 1 1 1 1 0 0 0 0 0 -0 -0 -0 -0 -0 -0 -0 -0 -0 0 -0 -0
2 2 2 2 2 2 2 2 2 2 2 2 2 1 1 1 1 1 1 1 0 0 0 0 0 0 0 -0 -0 -0 -0 -0 -0 -1 -1 -1 -1 -1 -1 -1 -1 -1 -1
1 1 2 2 2 2 2 1 1 1 1 1 1 1 1 1 1 0 0 0 0 -0 -0 -0 -0 -0 -0 -0 -0 -1 -1 -1 -1 -1 -1 -1 -1 -1 -1 -1 -1 -2 -1
1 1 1 1 1 1 1 1 1 1 1 1 1 1 0 0 0 0 -0 -0 -0 -0 -1 -1 -1 -1 -1 -1 -1 -1 -1 -1 -1 -2 -2 -2 -2 -1 -2 -2 -2 -2 -2
1 1 1 1 1 1 1 1 0 0 0 0 0 0 -0 -0 -0 -1 -1 -1 -1 -1 -1 -1 -1 -1 -1 -1 -1 -1 -1 -2 -2 -2 -2 -2 -2 -2 -2 -2 -2 -2 -2
0 0 0 0 0 0 0 0 -0 -0 -0 -0 -0 -0 -1 -1 -1 -1 -1 -1 -1 -1 -1 -1 -1 -1 -1 -2 -2 -2 -2 -2 -2 -2 -2 -2 -2 -2 -2 -2 -2 -3 -3
-0 -0 -0 -0 -0 -0 -0 -0 -0 -1 -1 -1 -1 -1 -1 -1 -1 -2 -2 -2 -2 -2 -2 -2 -2 -2 -2 -2 -2 -2 -2 -2 -2 -2 -2 -3 -3 -3 -3 -3 -3 -3 -3
-0 -0 -0 -1 -1 -1 -1 -1 -1 -1 -1 -1 -1 -2 -2 -2 -2 -2 -2 -2 -2 -2 -2 -2 -2 -2 -2 -3 -3 -3 -3 -3 -3 -3 -3 -3 -3 -3 -3 -3 -3 -4 -4
-1 -1 -1 -1 -1 -1 -1 -1 -2 -2 -2 -2 -2 -2 -2 -2 -2 -2 -2 -2 -3 -2 -2 -3 -3 -3 -3 -3 -3 -3 -3 -3 -3 -3 -3 -3 -3 -3 -3 -4 -4 -4 -4
-1 -1 -1 -1 -1 -2 -2 -2 -2 -2 -2 -3 -3 -3 -3 -3 -3 -3 -3 -3 -3 -3 -3 -3 -3 -3 -3 -3 -3 -4 -4 -4 -4 -4 -4 -4 -4 -4 -4 -4 -4 -4 -4
-2 -2 -2 -2 -2 -2 -2 -2 -2 -3 -3 -3 -3 -3 -3 -3 -3 -3 -3 -3 -3 -3 -3 -3 -3 -3 -3 -4 -4 -4 -4 -4 -4 -4 -4 -4 -4 -4 -4 -4 -4 -4 -4
-2 -2 -2 -2 -2 -2 -2 -3 -3 -3 -3 -3 -3 -3 -3 -3 -3 -4 -4 -4 -4 -4 -4 -4 -4 -4 -4 -4 -4 -4 -4 -4 -4 -4 -5 -5 -5 -5 -5 -5 -5 -5 -5
-2 -2 -3 -3 -3 -3 -3 -3 -3 -3 -4 -4 -4 -4 -4 -4 -4 -4 -4 -4 -4 -4 -4 -4 -4 -4 -4 -4 -4 -4 -5 -5 -5 -5 -5 -5 -5 -5 -5 -5 -5 -5 -5
-3 -3 -3 -3 -3 -3 -3 -4 -4 -4 -4 -4 -4 -4 -4 -4 -4 -4 -4 -4 -4 -4 -4 -4 -4 -4 -5 -5 -5 -5 -5 -5 -5 -5 -5 -5 -5 -5 -5 -5 -5 -5 -5
-3 -3 -3 -4 -4 -4 -4 -4 -4 -4 -4 -4 -4 -4 -4 -4 -4 -4 -4 -4 -4 -5 -5 -5 -5 -5 -5 -5 -5 -5 -5 -6 -6 -6 -6 -6 -6 -6 -6 -6 -6 -6 -6
-4 -4 -4 -4 -4 -4 -4 -4 -4 -5 -5 -5 -5 -5 -4 -4 -4 -4 -4 -4 -5 -5 -5 -5 -5 -5 -5 -5 -6 -6 -6 -6 -6 -6 -6 -6 -6 -6 -6 -6 -6 -6 -6
-4 -4 -4 -4 -4 -4 -4 -5 -5 -5 -5 -5 -5 -5 -5 -5 -5 -5 -5 -5 -5 -5 -5 -5 -5 -6 -6 -6 -6 -6 -6 -6 -6 -6 -6 -6 -6 -6 -6 -6 -6 -6 -6
-5 -5 -5 -5 -5 -5 -5 -5 -5 -5 -5 -5 -5 -5 -5 -5 -5 -5 -5 -5 -5 -5 -5 -5 -6 -6 -6 -6 -6 -6 -6 -6 -6 -6 -6 -6 -6 -6 -6 -6 -6 -6 -6
-5 -5 -5 -5 -5 -5 -5 -5 -5 -5 -5 -5 -5 -5 -5 -5 -5 -5 -5 -5 -5 -5 -6 -6 -6 -6 -6 -6 -6 -6 -6 -6 -6 -6 -6 -6 -6 -6 -6 -6 -6 -6 -6
-5 -5 -5 -5 -5 -5 -5 -5 -5 -5 -5 -5 -5 -5 -5 -5 -5 -5 -5 -6 -6 -6 -6 -6 -6 -6 -6 -6 -6 -6 -6 -6 -6 -6 -6 -6 -6 -6 -6 -6 -6 -6 -6
-5 -5 -5 -5 -5 -6 -6 -6 -6 -6 -6 -6 -6 -6 -6 -6 -6 -6 -6 -6 -6 -6 -6 -6 -6 -6 -6 -6 -6 -6 -6 -6 -6 -6 -6 -6 -6 -6 -6 -6 -6 -6 -7
-6 -6 -6 -6 -6 -6 -6 -6 -6 -6 -6 -6 -6 -6 -6 -6 -6 -6 -6 -6 -6 -6 -6 -6 -6 -6 -6 -6 -6 -6 -6 -6 -6 -6 -6 -6 -6 -6 -6 -7 -7 -6 -7
-6 -6 -6 -6 -6 -6 -6 -6 -6 -6 -6 -6 -6 -6 -6 -6 -6 -6 -6 -6 -6 -6 -6 -6 -6 -6 -6 -6 -6 -6 -6 -6 -6 -6 -6 -7 -7 -7 -7 -7 -7 -7 -7
Wind_Speed
2 2 2 2 3 3 4 4 4 3 3 3 4 3 3 3 3 3 3 3 3 3 2 3 4 3 3 3 3 3 4 4 6 5 3 2 2 3 4 5 6 6 8
2 1 1 2 2 2 3 4 3 3 3 3 3 3 3 3 3 3 3 3 3 3 3 3 4 3 3 3 3 3 4 4 5 6 4 3 3 3 3 4 5 6 6
1 1 1 1 2 2 3 3 3 3 3 3 3 3 3 3 3 3 4 4 4 4 4 4 4 3 3 3 3 3 3 3 4 4 5 3 3 2 2 3 4 4 6
0 1 1 1 1 2 2 2 3 3 3 2 2 2 2 2 3 3 3 3 3 3 3 4 4 4 5 4 4 4 3 3 3 4 4 4 3 2 2 3 3 3 4
0 0 1 1 1 1 1 1 2 2 2 2 2 1 1 1 2 3 3 3 3 2 2 3 3 4 6 5 4 3 3 3 3 3 4 4 3 2 3 2 3 4 4
1 1 0 1 1 1 1 1 2 2 2 1 1 1 1 1 2 2 2 2 2 2 2 3 3 3 4 5 6 6 5 5 5 4 4 5 4 4 3 3 3 3 4
1 1 1 1 1 1 1 2 1 2 2 1 1 1 1 2 2 2 2 1 2 2 2 2 2 2 3 2 4 5 5 6 7 6 6 6 5 4 3 4 3 4 4
1 1 1 1 1 1 1 1 1 1 1 1 1 1 1 2 2 2 2 1 2 2 3 3 3 3 3 3 3 3 3 3 4 4 5 5 5 4 4 4 4 4 3
1 1 1 1 1 1 1 1 0 1 1 1 1 1 1 2 3 2 2 1 1 2 2 2 2 3 5 5 3 3 3 3 4 5 5 5 6 6 4 2 2 3 4
2 1 1 2 2 2 2 1 0 1 1 0 1 1 2 2 3 3 2 1 1 2 2 2 4 4 6 5 3 3 4 3 2 2 3 4 3 4 4 2 3 3 3
1 1 1 1 1 2 2 1 1 1 1 0 1 1 1 2 3 3 3 1 1 2 2 2 2 5 6 5 4 3 4 3 2 2 2 2 2 1 2 2 2 3 3
1 1 1 1 1 1 2 1 1 1 1 0 0 1 1 1 2 3 3 2 2 2 2 2 3 5 5 5 3 3 5 3 1 1 2 2 2 2 2 2 3 3 4
1 1 1 1 1 2 2 2 1 1 1 1 1 1 2 1 2 3 3 3 3 1 2 3 4 4 4 3 3 4 3 1 1 2 2 2 2 2 2 2 2 2 3
1 1 2 2 1 1 1 2 1 1 1 1 1 2 2 2 2 1 1 1 2 1 1 2 3 3 3 3 3 2 1 1 1 2 2 2 2 2 2 2 2 2 2
1 1 1 1 1 1 0 1 1 2 3 2 2 2 2 2 3 3 2 1 1 1 1 0 0 1 1 1 1 1 1 1 1 1 2 2 2 2 2 2 2 2 2
1 1 1 1 1 1 0 1 1 1 2 3 3 3 2 4 5 5 4 3 3 2 1 1 1 1 1 2 2 2 1 2 2 2 2 3 3 2 3 2 2 2 2
2 1 1 1 1 1 1 1 1 2 2 2 2 3 3 4 4 4 3 3 3 2 1 1 1 1 2 2 2 2 2 2 2 2 2 3 2 2 2 2 2 2 2
1 2 2 1 1 1 1 1 1 1 1 2 2 3 3 3 3 2 2 2 2 1 1 1 2 2 2 2 2 2 2 2 2 2 2 3 3 3 2 3 3 3 2
1 1 1 1 1 1 1 1 1 1 1 2 2 2 3 3 2 2 1 0 1 2 1 2 2 2 2 3 3 3 3 3 3 3 3 3 3 3 3 3 3 3 3
1 2 1 1 1 1 1 1 1 1 2 2 2 2 2 1 1 1 1 1 1 2 2 2 2 3 3 3 3 3 3 3 3 3 3 3 3 3 3 3 3 2 2
1 1 2 1 1 1 1 2 2 2 2 2 2 3 3 1 2 2 2 2 2 2 3 3 3 3 3 3 3 3 4 3 3 3 3 3 3 3 3 2 2 2 2
1 1 1 1 1 1 1 1 1 2 2 2 2 3 4 1 1 2 2 2 3 3 3 3 3 3 3 3 3 4 4 4 4 3 3 3 3 3 3 2 2 2 2
1 1 1 1 1 1 1 1 1 1 1 2 2 2 2 1 2 2 2 3 3 3 3 3 3 3 3 4 5 4 4 4 4 4 3 3 3 3 3 3 3 2 2
1 1 1 1 1 1 1 1 1 2 2 2 2 2 2 2 2 2 3 2 3 3 3 3 3 4 5 5 5 5 6 6 5 4 4 4 3 3 2 2 2 2 2
1 1 1 1 1 1 1 1 1 2 2 2 2 2 2 2 2 2 2 3 3 3 4 4 4 4 5 6 5 5 6 6 6 4 4 3 3 3 3 3 2 2 2
1 2 1 1 1 2 2 2 2 2 2 2 2 2 2 2 2 2 3 3 3 4 4 4 4 5 6 5 5 6 6 5 5 4 3 2 3 2 2 2 2 2 2
Wind_Direction
216 225 226 223 212 203 199 206 212 208 197 200 208 203 204 208 202 193 204 204 205 220 228 227 241 233 228 233 231 234 236 230 253 272 261 267 266 281 305 301 299 298 296
211 205 207 196 193 195 200 206 199 198 202 202 198 197 203 206 205 202 206 210 213 223 229 227 245 246 242 241 235 242 242 235 238 263 275 268 260 273 288 297 307 302 296
201 175 173 186 191 199 208 205 193 192 197 193 190 200 208 206 206 206 209 216 219 227 230 230 240 236 248 252 247 249 250 249 236 248 269 267 265 284 289 293 300 303 303
170 162 175 201 204 191 189 186 185 178 180 183 187 199 208 209 210 210 215 220 221 232 239 238 240 234 238 246 252 248 245 242 238 241 261 268 268 280 273 286 299 299 297
150 193 216 197 161 128 126 152 160 163 173 171 171 186 200 212 209 202 212 210 212 230 248 253 252 252 253 254 252 244 235 240 242 249 259 265 263 267 267 265 279 297 292
164 204 244 113 115 117 115 126 138 142 141 141 162 178 227 250 246 245 228 203 209 218 248 264 265 268 278 283 278 273 261 244 241 247 254 255 256 251 255 263 270 295 301
169 174 157 135 128 113 106 108 123 126 125 130 154 157 249 261 274 270 266 222 211 223 236 255 277 279 287 270 287 295 289 277 255 244 249 253 251 242 242 257 258 265 270
170 183 175 154 141 112 96 104 119 115 127 146 195 200 229 275 294 289 287 245 219 233 236 237 249 262 261 257 259 277 271 270 266 252 244 253 253 245 232 239 246 265 270
188 208 206 178 160 146 157 195 170 122 141 176 197 207 230 275 287 289 301 210 232 249 251 247 253 260 271 274 261 265 273 271 276 264 260 264 270 270 254 245 247 270 286
215 213 201 180 178 188 196 205 210 165 172 180 255 239 237 258 279 295 300 218 248 269 272 265 269 274 279 281 252 245 262 269 263 279 286 291 293 283 275 247 232 249 268
210 175 160 171 191 194 186 185 169 146 123 141 253 269 248 261 277 287 293 246 230 256 270 275 277 287 287 290 285 253 259 268 248 244 263 281 295 298 297 277 244 238 250
157 154 165 180 193 174 168 175 157 150 145 159 296 315 298 273 284 286 290 283 266 236 256 266 271 288 292 297 300 284 285 287 250 252 276 279 277 281 282 283 266 255 248
137 170 182 175 186 173 166 167 162 162 181 211 219 273 302 309 295 304 304 301 292 275 257 273 286 296 308 309 300 297 298 281 255 261 271 276 267 264 279 294 289 287 289
156 160 148 151 155 141 160 167 175 197 206 219 231 254 278 292 298 306 310 323 320 305 305 301 311 322 325 313 310 309 295 269 263 260 274 275 274 268 265 265 274 291 303
155 154 141 138 141 131 118 204 209 222 220 224 229 228 241 269 286 302 312 295 263 245 284 271 336 321 323 316 309 300 291 295 291 273 270 277 276 274 278 277 270 276 274
169 170 164 159 151 145 130 357 331 268 273 272 265 263 266 269 287 298 302 299 299 296 319 280 283 284 286 294 295 294 284 280 275 273 272 272 275 275 284 288 275 265 272
194 197 188 180 170 175 184 193 311 338 331 308 294 289 281 283 293 300 302 301 300 297 289 270 270 275 282 282 277 271 271 275 270 266 271 271 274 274 277 279 276 273 274
200 210 199 193 190 192 198 210 217 250 306 318 312 303 302 301 301 300 305 325 315 321 274 265 274 278 278 279 277 273 271 276 273 270 270 269 264 268 273 275 274 270 273
205 209 200 192 197 195 194 199 208 225 251 280 306 315 320 321 316 307 323 297 269 277 276 274 274 271 272 273 273 272 270 272 273 271 269 270 264 264 266 268 272 273 273
224 236 233 200 192 185 183 192 213 229 244 258 270 285 314 332 320 309 312 281 265 261 266 273 273 269 268 270 269 271 271 271 270 267 266 268 268 267 266 265 267 271 273
217 225 237 225 202 204 206 211 224 232 243 261 273 276 283 277 268 274 280 275 267 262 262 265 266 267 268 272 271 268 267 265 263 260 261 264 267 270 268 264 263 258 267
197 201 214 217 208 211 225 226 230 234 243 262 282 286 286 295 273 270 274 278 276 267 263 262 266 266 265 268 267 266 263 263 262 259 258 259 261 263 265 261 262 264 261
177 188 213 223 209 230 256 243 244 247 256 265 276 284 291 291 283 279 276 280 283 279 277 270 272 276 272 266 258 253 257 258 259 259 259 258 256 257 259 256 254 258 263
189 191 199 210 216 216 227 234 240 250 257 263 269 273 275 279 283 287 288 288 289 288 284 277 271 273 279 279 272 265 260 259 255 246 239 244 250 258 254 253 253 253 255
187 187 191 198 210 221 232 239 245 253 258 261 265 271 279 281 285 290 292 294 295 291 291 287 279 277 277 278 278 278 279 274 268 252 235 230 241 245 244 242 245 256 248
192 196 206 208 213 222 228 241 250 258 263 268 269 269 272 275 278 284 289 294 298 296 295 293 290 289 286 281 282 287 290 288 273 256 242 227 234 237 232 229 234 246 240
Height
1463 1464 1464 1465 1465 1466 1467 1469 1470 1472 1473 1474 1475 1476 1476 1477 1477 1477 1478 1479 1479 1479 1480 1480 1481 1481 1481 1482 1482 1483 1483 1483 1481 1480 1480 1480 1480 1479 1479 1478 1476 1475 1474
1460 1460 1461 1462 1462 1463 1464 1465 1467 1468 1469 1470 1471 1471 1472 1473 1473 1474 1474 1475 1475 1475 1476 1477 1477 1477 1477 1478 1478 1478 1478 1478 1477 1475 1475 1476 1475 1475 1474 1473 1472 1470 1469
1457 1457 1458 1458 1459 1460 1461 1462 1463 1464 1465 1466 1467 1467 1468 1469 1469 1470 1470 1471 1471 1472 1473 1473 1474 1474 1474 1474 1474 1473 1473 1473 1473 1472 1471 1471 1471 1471 1470 1469 1468 1466 1465
1454 1454 1455 1455 1456 1456 1457 1458 1460 1461 1461 1462 1463 1464 1465 1465 1465 1466 1466 1467 1468 1469 1469 1470 1470 1470 1470 1470 1470 1469 1469 1469 1469 1468 1467 1467 1467 1466 1466 1464 1463 1462 1461
1452 1452 1452 1453 1453 1454 1454 1455 1456 1457 1458 1459 1460 1461 1461 1462 1462 1463 1463 1464 1464 1465 1466 1466 1466 1466 1466 1466 1466 1465 1465 1465 1464 1464 1463 1463 1462 1462 1461 1461 1459 1458 1457
1450 1450 1451 1451 1451 1451 1452 1452 1453 1454 1455 1456 1457 1458 1458 1459 1459 1460 1460 1461 1461 1461 1461 1462 1462 1462 1462 1462 1462 1462 1461 1461 1460 1460 1459 1459 1458 1458 1458 1457 1456 1454 1453
1447 1448 1448 1448 1448 1449 1449 1450 1451 1451 1452 1453 1454 1455 1455 1456 1457 1457 1457 1457 1458 1458 1458 1458 1458 1458 1458 1458 1458 1457 1457 1457 1457 1457 1456 1455 1455 1454 1454 1453 1452 1451 1449
1445 1445 1445 1446 1447 1447 1447 1448 1448 1449 1450 1450 1451 1452 1453 1453 1454 1454 1454 1454 1454 1455 1455 1455 1454 1454 1454 1454 1454 1453 1453 1453 1453 1452 1452 1451 1451 1451 1450 1449 1448 1447 1446
1443 1443 1444 1444 1444 1445 1445 1445 1446 1446 1447 1448 1449 1449 1450 1450 1451 1451 1451 1451 1451 1451 1452 1451 1451 1451 1450 1450 1450 1449 1449 1448 1449 1448 1448 1447 1447 1447 1446 1445 1444 1443 1442
1440 1441 1442 1442 1442 1443 1443 1444 1444 1444 1445 1445 1446 1447 1447 1447 1448 1448 1448 1448 1448 1448 1448 1448 1448 1447 1447 1447 1446 1445 1444 1444 1444 1444 1444 1444 1443 1443 1442 1441 1441 1440 1439
1438 1439 1439 1440 1440 1441 1441 1442 1442 1442 1442 1443 1443 1444 1444 1445 1445 1445 1445 1445 1445 1445 1445 1444 1444 1444 1444 1443 1443 1442 1441 1441 1440 1440 1440 1439 1439 1438 1438 1438 1437 1437 1436
1435 1436 1436 1437 1438 1439 1439 1439 1440 1440 1440 1440 1441 1441 1442 1442 1443 1443 1443 1443 1442 1442 1441 1441 1441 1441 1440 1440 1439 1439 1438 1438 1437 1437 1436 1435 1435 1435 1434 1434 1434 1434 1433
1432 1433 1433 1434 1435 1436 1437 1437 1437 1438 1438 1438 1438 1438 1439 1440 1440 1440 1440 1440 1440 1439 1439 1438 1438 1438 1437 1437 1436 1436 1435 1435 1434 1433 1433 1432 1432 1432 1431 1431 1431 1430 1429
1430 1430 1430 1431 1433 1434 1435 1435 1435 1436 1436 1436 1436 1436 1436 1437 1437 1437 1437 1437 1437 1436 1436 1435 1435 1435 1434 1433 1433 1433 1432 1432 1431 1431 1430 1429 1429 1429 1428 1428 1427 1426 1426
1428 1428 1429 1430 1431 1432 1433 1433 1434 1434 1434 1434 1434 1435 1434 1434 1435 1435 1435 1434 1434 1433 1433 1432 1432 1431 1431 1430 1430 1430 1429 1429 1428 1428 1427 1427 1426 1426 1425 1425 1424 1423 1422
1426 1427 1428 1428 1429 1430 1430 1431 1432 1432 1432 1432 1433 1433 1433 1433 1433 1433 1432 1432 1431 1431 1430 1429 1429 1428 1428 1427 1427 1427 1426 1426 1425 1425 1424 1424 1423 1423 1422 1422 1421 1421 1420
1424 1425 1426 1427 1427 1428 1428 1429 1429 1430 1430 1431 1431 1431 1431 1431 1430 1430 1430 1429 1429 1429 1428 1427 1426 1426 1425 1425 1425 1424 1423 1423 1423 1422 1422 1421 1421 1420 1420 1419 1419 1418 1418
1423 1423 1424 1425 1425 1426 1426 1427 1427 1427 1427 1428 1429 1428 1428 1428 1428 1428 1427 1427 1426 1426 1425 1425 1424 1424 1423 1422 1422 1421 1421 1420 1420 1420 1419 1419 1418 1418 1417 1417 1417 1416 1415
1421 1421 1422 1422 1423 1424 1424 1425 1425 1425 1425 1425 1425 1426 1426 1426 1425 1425 1425 1424 1423 1423 1423 1422 1422 1421 1420 1420 1419 1419 1418 1417 1417 1417 1416 1416 1416 1415 1415 1415 1414 1414 1413
1419 1420 1420 1421 1421 1422 1422 1423 1423 1423 1423 1423 1423 1423 1423 1423 1422 1423 1422 1422 1421 1421 1420 1419 1419 1418 1418 1417 1416 1416 1415 1414 1414 1414 1413 1413 1413 1413 1413 1412 1412 1411 1411
1418 1418 1419 1419 1420 1420 1420 1421 1421 1421 1421 1421 1421 1422 1422 1421 1421 1420 1420 1419 1419 1418 1417 1417 1416 1415 1415 1414 1413 1413 1412 1412 1411 1411 1411 1411 1411 1410 1410 1410 1410 1409 1409
1416 1417 1417 1417 1418 1418 1418 1419 1419 1419 1419 1420 1420 1420 1420 1419 1418 1418 1417 1417 1416 1416 1415 1414 1413 1413 1412 1411 1411 1410 1409 1409 1409 1408 1408 1408 1408 1408 1408 1408 1408 1407 1407
1414 1415 1415 1416 1416 1417 1417 1417 1417 1418 1418 1418 1418 1417 1417 1417 1416 1416 1415 1414 1414 1413 1412 1411 1410 1410 1409 1409 1408 1407 1407 1406 1406 1406 1406 1406 1406 1406 1406 1406 1406 1405 1405
1412 1413 1414 1414 1414 1415 1415 1415 1415 1416 1416 1416 1416 1416 1415 1415 1414 1414 1413 1412 1411 1410 1410 1409 1408 1407 1406 1406 1405 1405 1404 1404 1404 1403 1403 1403 1403 1403 1404 1404 1404 1404 1403
1410 1411 1412 1412 1412 1413 1413 1413 1414 1414 1414 1414 1414 1413 1413 1413 1412 1411 1411 1410 1409 1408 1407 1406 1405 1405 1404 1403 1403 1402 1402 1402 1401 1401 1401 1401 1401 1401 1402 1402 1402 1402 1402
1408 1409 1409 1410 1410 1411 1411 1411 1411 1412 1412 1412 1411 1411 1411 1410 1410 1409 1408 1408 1407 1406 1405 1404 1403 1402 1402 1401 1400 1400 1400 1399 1399 1399 1399 1399 1399 1400 1400 1400 1400 1400 1400